Wind_Speed
57 57 57 58 59 60 60 61 62 62 63 63 63 64 64 64 65 65 65 66 66 66 66 67 67 68 68 68 68 68 68 69 70 70 71 71 70 70 70 69 69 69 68 68 67 65 64 63 61 59 58 56 57 57 56 56 55 54 53 51 50 48 45 44 43 46 48 47 46 43 40 43 44 41 40 43 48 54 57 56 53 50 50 49 48
55 55 56 56 57 58 58 59 60 61 62 63 63 64 65 65 66 66 66 67 67 67 67 68 68 69 69 69 69 70 70 71 71 72 72 72 72 71 70 69 68 68 67 66 66 64 63 63 61 60 59 57 57 57 57 57 56 55 54 52 51 49 47 45 43 44 47 47 46 43 42 42 41 37 38 42 47 53 56 56 54 52 50 49 47
55 55 56 56 57 57 58 59 59 60 61 62 62 63 64 65 65 66 67 67 67 68 68 69 69 70 70 70 71 71 71 71 72 72 72 72 72 71 70 69 68 67 66 65 64 64 63 63 62 61 60 58 58 57 58 58 56 56 55 53 51 50 48 46 44 45 46 47 46 44 41 39 36 36 38 43 48 52 54 55 55 53 51 48 47
55 55 56 56 57 57 58 58 59 60 60 61 62 63 63 64 65 66 67 67 68 68 69 69 70 70 70 70 71 71 71 72 72 72 72 72 72 71 70 68 66 65 65 64 64 64 64 63 62 61 60 59 58 58 58 58 57 56 56 54 52 51 50 47 45 44 45 46 45 44 40 37 36 38 41 45 50 52 53 54 53 52 51 49 50
55 55 55 56 57 58 58 59 60 60 61 61 62 63 63 64 65 65 66 67 67 68 69 69 69 69 70 70 70 71 72 72 73 73 73 72 72 71 68 66 65 64 64 64 64 64 64 64 63 62 60 59 59 59 58 57 57 56 56 55 53 52 51 49 46 45 45 45 45 44 41 37 37 41 43 45 50 52 53 54 53 53 53 52 53
55 55 55 56 57 58 59 60 60 61 62 62 63 63 64 64 64 64 65 65 66 67 67 68 68 68 69 70 71 72 73 73 74 74 74 72 70 68 66 65 64 64 64 64 65 65 65 65 64 63 61 60 59 59 59 58 57 56 55 55 54 53 52 50 48 46 45 46 46 44 41 39 39 43 44 46 49 52 54 55 55 55 54 51 50
54 55 56 57 58 59 59 60 61 61 62 63 63 64 64 64 63 64 64 65 65 66 67 68 69 69 70 71 72 73 73 74 75 74 73 71 68 66 65 64 64 64 65 65 65 66 66 66 65 64 62 61 60 59 59 59 58 57 55 55 55 54 53 52 49 48 47 46 46 45 43 41 43 47 48 48 50 53 55 55 56 57 56 52 49
55 56 57 58 59 60 60 61 62 62 63 63 63 63 63 64 64 64 65 66 67 68 68 69 70 71 71 72 73 74 74 74 73 72 70 68 66 65 64 64 65 65 66 67 67 67 67 67 66 65 64 62 61 60 60 60 60 59 56 55 56 55 54 53 51 49 48 48 48 47 46 45 48 53 54 54 54 55 55 55 55 56 55 53 51
57 58 59 59 60 61 62 62 63 63 63 63 63 63 64 64 65 66 67 68 68 69 70 70 71 72 73 73 73 73 72 70 68 67 67 66 66 65 65 65 66 67 68 69 70 70 69 69 68 66 64 63 62 62 61 61 61 60 59 56 56 56 56 54 53 51 50 49 50 49 48 48 51 55 57 56 55 56 56 56 55 55 54 52 50
59 60 60 61 62 62 63 63 64 64 64 64 64 64 64 65 66 67 67 68 69 69 70 70 71 71 71 71 69 68 67 66 66 66 66 67 67 67 67 68 68 69 70 71 72 72 72 72 70 68 66 64 63 63 63 62 62 61 61 59 57 57 57 56 54 53 51 51 52 52 50 50 52 55 57 57 56 56 57 56 55 55 56 54 50
60 61 62 63 63 64 64 65 65 65 64 64 64 64 65 65 66 67 67 68 69 69 69 69 68 68 68 67 67 67 68 67 67 68 68 68 69 69 70 71 71 72 72 73 73 74 74 74 74 72 70 67 65 64 64 64 64 63 62 62 60 58 58 57 56 54 53 52 53 54 53 53 54 56 58 60 59 57 58 57 56 56 56 55 53
62 63 63 64 65 65 65 65 65 65 64 63 63 64 64 65 66 66 67 67 67 67 66 66 66 67 68 68 69 69 69 69 69 69 70 70 70 71 72 73 73 74 75 75 75 76 76 76 76 76 74 72 70 68 66 66 65 65 64 63 62 61 59 59 58 56 55 54 55 56 56 56 56 56 58 62 62 61 62 61 59 58 57 56 55
63 64 64 65 65 65 65 65 64 63 63 62 63 63 64 64 65 65 65 64 64 64 64 66 68 69 69 69 69 69 69 70 70 71 71 72 73 73 74 75 75 76 77 77 78 78 78 78 78 78 78 76 74 72 70 69 68 67 66 65 64 63 62 60 59 59 57 56 56 58 59 58 58 57 59 63 64 64 65 64 62 60 58 57 56
64 65 65 65 65 65 64 63 62 61 61 62 62 63 63 63 63 62 62 63 64 65 66 68 69 68 68 68 68 69 70 71 72 73 74 75 76 76 77 78 78 78 79 79 79 80 80 80 80 80 79 79 77 75 74 72 71 70 68 67 66 65 64 62 61 60 59 58 57 59 61 61 59 59 61 64 66 65 65 65 63 62 60 59 59
65 65 65 64 64 62 61 60 59 60 60 61 61 62 62 62 61 62 63 65 66 67 67 68 68 68 68 68 69 70 72 73 74 75 77 78 78 79 80 80 81 80 80 80 80 80 80 79 79 79 79 78 77 77 75 74 74 72 71 70 68 68 66 64 63 62 61 60 59 60 63 63 62 61 61 64 67 68 66 65 64 63 63 63 63
66 65 64 62 61 59 58 58 58 59 60 60 61 61 61 61 63 64 66 67 67 68 68 68 68 68 69 70 71 72 74 75 76 77 78 79 80 81 81 81 82 82 81 81 80 79 78 77 76 76 75 75 74 73 73 73 74 73 73 72 71 70 69 67 65 64 63 62 61 62 64 65 64 63 62 64 68 71 69 67 65 64 63 64 64
64 63 61 60 59 58 58 58 58 59 60 60 61 61 62 63 65 66 67 67 68 68 68 68 69 69 70 71 73 74 75 77 78 79 80 80 81 82 82 82 83 82 81 80 79 77 75 73 72 70 70 69 68 68 68 69 70 71 72 72 71 71 70 69 67 65 65 64 64 63 65 67 66 65 64 64 68 73 73 70 67 65 64 64 63
62 61 59 58 58 57 57 58 58 59 60 60 61 62 63 64 65 66 67 67 67 67 68 69 69 70 72 73 74 76 77 78 79 80 81 81 82 82 82 82 82 81 80 78 76 74 72 70 68 66 64 63 62 62 62 63 65 68 69 70 70 70 70 70 70 68 66 66 66 66 66 67 67 67 66 65 68 73 74 72 70 69 67 66 65
60 58 57 57 57 57 57 58 59 59 60 61 62 63 64 65 66 66 67 67 67 68 68 69 70 72 73 75 76 77 78 79 80 81 81 81 82 81 81 80 79 78 76 75 73 71 69 68 66 63 60 57 56 56 56 57 60 63 65 66 67 68 69 70 71 70 68 68 68 68 67 68 68 69 68 67 68 71 74 74 72 72 70 68 67
58 56 56 56 57 58 58 59 60 61 62 63 64 64 65 66 66 67 67 67 68 68 69 70 72 73 74 76 77 78 79 80 80 81 81 80 80 78 77 75 74 73 72 71 69 68 67 65 64 62 59 54 51 50 50 51 54 59 61 62 63 65 66 68 71 72 71 69 70 70 69 68 70 71 71 70 69 71 75 75 73 74 73 71 70
56 56 56 57 58 59 60 61 62 62 63 64 65 66 66 66 67 67 67 67 68 69 70 72 73 74 76 77 78 79 79 80 80 79 78 77 75 73 72 70 70 69 69 67 65 63 62 62 61 60 58 53 48 46 45 45 48 53 57 58 59 61 63 65 69 72 73 71 71 71 71 70 71 72 73 72 71 72 75 76 76 77 78 75 73
56 57 58 59 60 61 62 62 63 63 64 65 65 65 66 66 66 66 66 67 68 70 71 73 74 75 76 77 78 78 78 78 77 75 73 71 69 68 68 67 66 66 65 64 63 61 59 58 57 57 57 53 47 44 44 42 42 46 52 54 55 57 60 62 66 70 73 73 72 72 72 71 72 73 74 74 73 73 76 79 80 80 78 77 76
57 58 59 60 61 61 62 62 63 64 64 64 64 65 65 65 65 66 67 68 70 71 72 73 74 75 76 77 77 77 75 74 72 69 67 66 65 65 65 65 64 63 62 61 60 58 56 54 52 52 53 50 45 42 42 40 37 40 46 50 51 53 56 58 62 67 72 73 73 73 73 73 73 74 75 75 75 75 76 80 82 81 79 78 79
58 59 60 60 61 62 62 63 63 64 64 64 64 64 64 65 66 67 68 69 70 71 72 73 74 75 76 76 75 73 71 68 66 64 63 63 63 64 64 64 63 61 60 58 56 54 52 50 48 47 48 47 43 39 39 39 35 35 41 45 48 50 53 55 58 63 69 73 74 74 75 74 74 75 76 77 77 76 77 79 82 82 82 82 82
60 61 61 62 62 63 63 63 63 63 63 63 63 64 65 66 67 68 69 70 70 71 72 73 74 74 74 72 70 68 65 63 61 61 61 62 62 63 63 63 62 60 59 58 56 54 51 48 45 43 43 43 40 37 36 37 34 33 36 41 44 47 51 52 55 59 66 71 74 75 76 76 75 75 77 78 78 78 78 79 82 84 84 85 84
61 61 62 62 62 62 62 62 62 62 62 63 63 64 66 67 67 68 69 69 70 71 72 72 72 70 69 67 64 62 60 59 60 60 61 61 62 63 63 63 62 61 60 59 57 54 51 48 44 41 40 40 38 34 33 34 32 30 32 37 41 45 48 49 52 56 63 69 73 75 76 77 77 76 77 79 80 80 79 80 82 85 86 85 84
61 61 61 61 61 61 61 61 61 61 62 63 64 65 65 66 66 67 68 70 71 71 70 69 67 65 63 60 58 57 57 58 58 59 60 61 62 63 63 63 62 61 59 58 57 54 52 50 46 41 38 38 37 34 31 31 30 29 30 34 38 43 46 47 49 54 60 67 72 74 76 78 78 77 77 79 81 82 81 81 83 85 87 86 84
60 59 59 59 60 60 60 60 61 62 63 63 64 64 64 65 66 68 69 69 69 68 66 65 62 60 57 56 55 55 55 56 56 57 59 59 60 60 61 61 60 58 56 55 55 53 50 48 46 41 36 34 34 33 30 28 28 27 28 31 36 41 43 45 47 51 56 63 70 74 75 77 78 78 78 79 82 84 84 83 84 85 87 86 85
58 58 58 58 59 59 60 61 62 62 63 63 63 63 64 66 67 68 68 67 65 63 61 58 55 54 54 54 54 54 54 54 54 55 56 57 57 57 56 56 56 55 53 52 51 50 47 45 44 41 37 32 31 30 29 27 25 25 26 30 34 38 41 42 45 49 54 60 67 72 75 77 78 79 79 80 83 86 86 85 84 85 87 87 85
57 57 58 58 59 60 61 62 62 62 62 62 63 64 65 66 66 65 64 63 60 58 54 51 50 50 51 52 52 52 52 52 52 52 53 54 54 54 54 53 53 52 51 49 48 48 46 43 41 39 37 33 30 28 26 25 24 24 25 28 33 37 39 40 43 47 52 58 65 71 74 76 78 80 81 82 84 86 87 86 85 85 86 87 86
57 58 59 60 61 61 62 62 62 62 62 63 64 64 64 64 62 61 59 57 55 51 49 48 48 48 49 50 50 50 50 50 50 50 50 50 52 52 52 52 51 51 49 47 46 46 44 41 38 36 34 32 29 26 24 23 22 22 24 27 31 35 37 39 41 45 50 56 62 69 74 77 79 81 82 83 84 85 85 86 86 85 85 86 86
58 59 60 61 61 61 62 62 62 62 63 63 63 62 61 60 58 56 54 51 48 46 46 46 47 47 48 49 49 48 48 48 48 48 47 47 49 50 50 50 50 49 48 46 44 43 41 38 35 32 31 29 27 24 22 21 20 21 22 25 30 34 36 38 40 43 48 53 59 66 72 76 78 81 82 83 83 83 84 85 86 85 85 85 85
60 61 61 61 61 62 62 63 63 63 63 61 60 58 57 55 53 50 47 45 44 44 44 45 45 46 46 47 47 47 47 47 46 45 45 45 47 47 48 48 47 47 47 45 43 41 39 37 34 31 29 27 25 23 21 19 19 19 21 24 28 32 35 36 38 42 46 51 57 63 70 74 77 80 82 83 83 83 84 85 85 86 85 84 84
62 62 62 62 62 62 63 63 62 61 60 58 56 55 52 50 47 45 43 42 42 43 43 43 44 44 44 44 44 45 45 44 43 44 44 45 46 46 46 46 45 44 43 43 41 40 38 36 34 31 28 26 23 21 19 18 17 18 19 22 25 29 33 35 37 40 44 49 55 61 67 73 77 80 82 83 83 83 84 85 86 85 85 84 83
62 62 62 63 63 63 62 61 59 57 55 54 52 50 47 45 43 42 41 41 41 41 41 42 42 42 42 42 42 42 42 41 41 42 44 45 46 46 46 46 45 44 43 42 40 39 37 36 33 31 28 25 22 20 18 16 16 17 18 20 24 27 31 33 35 38 42 47 52 58 64 71 75 79 81 82 82 83 84 85 86 86 85 85 84
62 63 63 63 62 60 59 57 55 53 51 49 47 46 43 42 41 40 40 40 40 40 40 40 41 41 40 40 40 40 40 39 40 41 42 44 45 46 45 45 44 44 43 42 40 38 36 35 33 30 27 24 22 19 17 15 14 15 16 19 22 25 29 32 34 37 41 45 49 55 61 68 74 78 80 82 82 83 84 85 86 87 87 86 86
63 63 62 60 58 56 55 53 51 49 47 45 43 42 41 41 40 40 39 39 39 39 39 39 39 39 39 39 38 38 37 37 38 39 41 42 43 44 44 43 43 43 42 41 40 37 36 34 33 30 27 24 21 19 16 14 13 13 15 17 20 23 27 30 33 36 39 42 47 52 58 65 72 77 80 82 83 84 85 86 87 87 88 87 87
61 60 58 56 54 52 51 49 47 45 43 42 41 40 40 39 39 39 39 38 38 38 38 38 38 37 37 37 36 36 35 36 37 38 39 40 42 44 44 44 42 41 40 40 39 37 35 34 32 30 27 24 21 19 16 14 12 12 13 15 18 21 25 28 32 34 37 40 44 50 55 62 69 75 79 81 83 84 85 86 87 88 89 89 88
58 56 54 51 50 49 47 45 44 42 41 40 40 39 39 38 38 38 37 37 36 37 37 36 36 36 36 35 35 35 35 36 37 38 39 40 42 43 44 44 43 41 40 39 38 37 35 33 32 30 28 25 22 19 17 14 12 11 12 14 16 19 23 27 30 33 36 39 43 47 52 58 65 71 77 80 83 84 86 87 88 89 90 90 89
53 52 50 48 46 45 44 43 42 41 40 39 39 38 38 37 36 36 35 35 35 35 35 35 35 35 35 34 33 33 34 35 37 38 39 40 41 43 44 44 44 42 40 38 37 37 35 33 31 29 28 26 23 21 18 16 13 11 10 12 15 18 21 24 28 31 34 37 41 45 50 55 61 67 74 79 82 85 86 87 88 89 90 90 90
50 48 46 45 44 43 42 41 40 40 39 38 38 37 36 35 34 34 33 33 34 33 33 33 33 34 34 33 32 32 33 34 36 37 38 39 40 42 43 44 44 43 41 38 37 36 35 34 31 29 27 26 24 22 19 17 14 11 10 10 13 16 19 22 26 29 32 35 39 43 47 52 57 63 69 76 81 84 86 88 89 90 91 91 91
47 46 44 43 42 41 41 40 39 38 38 37 36 35 34 33 32 32 32 32 32 31 31 31 32 33 33 32 31 32 33 34 35 37 38 39 39 41 42 42 43 42 41 39 37 36 35 34 33 30 28 26 25 23 21 18 15 13 10 9 11 14 17 20 23 27 30 33 37 41 45 49 53 59 65 71 78 83 86 88 89 90 91 91 91
45 44 42 40 40 39 39 38 37 36 35 34 33 32 31 31 31 31 31 31 30 29 29 30 31 31 32 32 31 31 32 34 35 36 37 38 39 40 41 41 41 41 41 39 37 36 35 34 33 31 30 27 25 24 22 20 18 14 12 10 9 11 15 18 21 24 28 31 34 38 43 47 51 55 60 66 73 79 84 87 89 91 91 92 92
43 41 40 38 37 37 36 35 34 33 31 30 30 29 29 30 30 30 30 29 29 28 28 29 29 30 31 32 32 32 32 34 35 36 37 38 39 39 40 41 41 41 40 39 37 36 34 33 32 31 30 29 26 24 22 21 19 16 13 11 9 10 12 15 19 22 25 29 32 36 40 44 48 52 56 62 68 74 80 85 89 91 92 92 92
40 39 37 35 34 34 33 32 30 29 28 28 27 28 28 29 30 30 30 29 28 28 28 29 29 29 30 31 32 33 33 34 35 37 37 38 39 39 39 40 41 40 40 39 37 36 34 33 32 30 29 28 27 26 24 22 20 18 15 13 10 9 10 13 16 20 23 26 30 33 37 41 45 49 53 57 63 68 75 81 86 89 91 93 93
37 36 34 32 31 30 29 29 28 27 27 26 26 27 27 28 29 30 29 28 27 28 29 29 29 29 29 30 32 33 34 35 36 37 38 38 39 39 40 40 41 41 40 39 37 36 34 33 32 30 29 27 27 26 25 23 21 19 17 15 12 10 9 10 13 17 20 24 27 30 34 37 41 46 50 54 58 63 68 74 80 86 90 92 93
33 33 32 30 28 27 27 27 27 26 26 26 26 26 27 28 28 28 28 28 28 28 29 30 30 30 30 31 32 33 34 35 36 37 38 38 39 39 40 41 41 41 40 39 38 36 35 33 31 30 28 27 26 25 24 24 23 21 19 16 14 12 11 10 11 13 17 21 24 27 31 35 38 42 46 50 54 58 63 68 73 79 85 89 92
30 30 29 27 26 25 25 26 26 26 26 26 26 26 27 27 27 27 27 28 28 28 29 30 30 31 31 32 33 34 35 36 36 37 38 38 39 40 41 41 41 41 40 39 38 37 35 34 32 30 28 27 25 24 23 23 22 22 21 19 16 14 12 11 11 11 13 17 20 24 28 31 35 39 42 46 50 54 58 62 67 72 78 83 88
27 27 27 26 25 24 24 25 25 26 26 26 26 26 26 26 26 26 27 28 29 29 30 30 31 32 33 33 34 35 36 37 37 38 38 38 39 40 40 41 42 41 40 39 38 37 36 34 33 31 29 27 25 24 23 22 21 21 21 21 19 17 15 13 12 11 12 13 16 20 24 28 31 35 39 42 46 50 54 58 62 66 70 75 81
24 24 24 24 24 24 24 24 25 25 26 26 26 26 25 25 26 26 27 27 28 30 31 31 32 33 34 35 35 36 37 38 38 39 39 39 40 40 41 41 41 41 40 40 39 38 37 35 34 32 30 28 26 24 23 22 21 20 19 20 20 20 18 16 14 12 12 13 14 16 19 23 27 31 35 38 42 46 49 53 57 61 65 69 73
22 22 23 23 24 24 24 25 25 25 26 26 26 26 26 26 26 27 27 27 28 30 31 32 33 33 34 36 37 37 38 39 39 40 40 41 41 42 42 42 41 40 40 39 39 38 37 36 35 34 32 30 28 26 24 22 21 20 19 19 18 19 19 19 17 15 14 13 13 14 16 18 22 26 30 34 37 41 45 48 52 56 60 63 67
Wind_Direction
277 278 279 279 279 279 280 280 281 281 281 282 282 282 283 283 284 285 285 286 287 288 288 289 290 290 291 291 291 292 292 292 291 291 291 290 290 289 289 288 287 287 286 286 285 285 285 284 284 282 281 279 277 276 274 272 268 265 263 261 261 259 257 255 253 253 255 255 255 258 260 264 265 260 249 239 229 224 225 228 231 232 233 234 237
278 279 279 280 280 281 281 281 281 282 282 282 282 283 283 284 284 285 285 286 287 287 288 288 289 289 290 290 291 291 291 291 291 291 291 291 290 290 289 288 287 286 285 284 283 283 282 281 281 280 279 277 276 274 273 272 269 266 263 261 260 259 257 255 252 251 252 253 254 254 254 258 261 253 239 230 226 224 225 228 231 232 233 236 238
279 280 280 280 281 281 281 281 282 282 282 282 283 284 284 285 285 285 286 286 287 287 287 288 288 289 289 290 290 290 290 290 291 291 291 291 290 290 289 288 287 285 284 282 281 280 279 279 279 278 277 275 275 273 271 270 268 266 263 261 259 258 257 255 252 250 249 250 252 253 254 256 252 240 229 223 223 225 226 229 231 231 233 236 238
280 280 281 281 281 281 282 282 282 283 283 284 284 285 285 285 286 286 286 287 287 287 288 288 288 289 289 289 290 290 290 291 291 291 291 291 290 290 289 288 285 284 282 281 279 278 278 277 277 276 275 274 273 272 270 268 267 265 263 260 258 256 256 254 252 249 247 247 249 250 251 252 243 230 223 221 223 225 226 228 230 231 233 234 237
280 281 281 281 282 282 283 283 284 284 285 285 285 285 286 286 286 287 287 288 288 288 289 289 289 290 290 290 290 290 291 291 291 291 291 290 290 290 289 287 284 282 281 279 278 277 277 277 276 276 275 274 273 271 269 267 265 264 262 260 257 255 254 253 252 249 245 243 245 246 247 247 237 225 221 223 225 227 227 228 229 230 231 233 236
280 281 281 282 282 283 283 284 284 285 285 285 286 286 286 287 287 288 289 289 289 290 290 290 290 290 290 290 290 291 291 290 290 290 290 290 289 288 287 286 284 282 281 279 278 278 277 277 276 276 275 273 272 271 269 267 264 263 261 259 257 254 253 251 250 249 244 240 240 242 244 241 230 221 221 224 227 229 228 229 230 230 231 232 235
282 283 283 283 284 284 285 285 286 286 286 286 286 287 287 287 288 289 289 289 290 290 290 291 291 291 291 291 291 290 290 290 290 290 290 289 288 287 286 285 284 282 281 280 279 278 277 277 276 275 274 273 271 270 268 266 265 262 260 258 256 254 252 250 248 247 243 239 237 238 239 235 223 218 221 224 226 228 229 229 229 231 231 233 235
284 284 284 285 285 286 287 287 287 287 288 288 288 288 288 288 289 289 289 290 290 290 290 291 291 291 291 291 290 290 290 290 290 290 290 289 288 287 286 285 284 283 281 280 279 278 277 276 276 275 274 273 271 269 267 265 264 263 260 257 255 253 251 249 247 245 242 238 235 235 236 232 223 219 221 222 225 227 228 228 229 230 231 233 235
285 285 286 287 288 288 288 289 289 289 289 289 289 289 289 290 290 290 290 290 290 290 290 291 291 291 291 291 291 291 291 291 290 290 290 289 288 287 286 284 283 282 282 281 280 280 279 278 277 275 274 273 271 269 267 265 263 263 261 257 254 252 251 248 245 243 241 238 234 233 233 233 230 226 222 222 226 228 228 229 229 230 230 231 232
286 288 289 289 289 289 289 290 290 290 290 290 290 290 290 290 290 290 290 290 290 290 290 291 291 291 291 291 292 292 291 291 290 290 289 288 287 286 285 284 283 282 282 282 281 281 281 280 279 277 275 273 271 269 268 266 264 262 261 258 255 252 250 247 244 242 240 237 234 232 231 231 231 228 222 222 226 229 230 230 230 229 229 228 228
288 289 289 290 289 289 289 289 290 290 290 289 289 289 289 289 289 289 289 290 290 290 290 290 291 292 292 292 292 292 291 290 290 289 288 287 287 286 285 284 284 283 282 282 282 281 281 281 280 279 278 276 273 271 268 266 265 262 261 259 256 252 249 247 244 241 238 236 233 232 230 230 230 228 223 221 224 227 229 230 229 229 229 227 226
288 289 289 289 289 288 288 289 289 289 289 289 289 289 289 289 289 289 290 290 290 290 291 291 292 293 292 292 292 291 291 290 289 289 289 288 287 286 285 285 284 284 284 283 282 282 281 281 280 280 279 277 275 273 270 267 265 263 261 259 256 253 250 247 244 241 238 235 233 231 230 229 230 230 225 222 223 226 228 228 227 227 227 227 227
288 289 289 288 288 288 288 288 288 288 288 288 288 288 289 289 290 290 291 291 291 291 291 292 293 293 292 292 292 291 291 291 290 290 290 289 288 288 287 286 286 285 285 284 284 283 282 281 280 280 279 277 276 274 271 269 266 263 260 258 256 254 250 247 244 241 237 234 232 231 230 229 229 229 226 222 222 224 228 229 228 226 226 227 228
288 288 288 288 288 287 287 287 287 287 287 287 288 289 289 290 290 291 291 291 291 292 292 293 293 293 292 292 292 292 292 292 292 292 291 290 290 289 289 288 288 287 286 286 285 284 283 282 281 279 278 277 276 274 271 269 266 263 260 258 255 253 250 247 244 241 238 234 231 230 230 229 228 228 227 223 221 223 226 229 229 227 227 227 228
288 288 287 287 287 287 286 286 286 287 288 288 289 290 290 290 290 291 291 292 292 293 293 294 294 293 293 294 294 294 294 293 293 292 292 292 291 291 291 290 290 289 288 287 286 285 284 283 281 280 278 277 275 273 271 268 266 263 260 257 254 252 250 247 243 241 238 235 231 229 229 229 228 227 227 224 222 222 224 227 228 228 227 227 228
288 288 287 287 286 286 286 287 287 288 288 289 289 290 289 290 291 292 294 294 295 295 295 295 295 295 294 294 294 294 294 293 293 293 293 293 294 294 294 293 293 292 291 290 289 288 286 285 283 281 279 277 275 273 271 268 265 263 260 256 253 251 249 246 243 240 238 235 232 229 228 228 227 227 226 224 222 222 224 226 227 227 227 227 227
288 287 287 286 286 286 287 287 288 288 289 289 290 290 290 292 293 295 296 296 295 295 295 295 295 295 295 295 295 295 295 295 295 295 296 296 296 296 296 296 295 295 294 293 292 290 289 287 285 283 281 279 276 273 270 267 265 262 259 256 252 249 247 246 243 239 236 235 232 229 227 227 227 226 225 224 222 222 224 226 227 228 228 228 227
287 287 287 287 287 287 288 288 288 289 289 290 291 292 293 295 296 296 296 295 295 294 294 295 295 295 295 296 296 296 296 297 297 297 298 298 298 298 298 297 297 296 296 295 294 293 292 291 288 286 283 280 278 275 271 267 264 261 258 255 252 248 245 243 242 238 235 233 232 230 227 226 226 225 225 224 223 222 224 226 228 229 229 228 228
287 287 287 287 287 288 288 289 289 290 291 292 293 294 295 295 295 295 295 295 294 295 295 295 296 296 297 297 297 297 297 298 298 299 299 299 299 299 299 299 298 298 297 297 296 296 295 293 291 289 286 282 279 275 271 267 263 260 257 254 251 247 244 241 239 238 234 231 230 229 227 225 225 224 224 223 223 222 222 225 228 229 230 230 230
287 286 287 287 288 289 289 290 291 292 293 293 294 294 294 294 294 294 294 294 295 295 296 296 297 297 298 298 298 298 298 299 299 300 300 300 300 300 300 299 299 299 298 298 298 297 297 296 294 292 289 286 282 277 271 266 261 259 257 254 250 247 243 238 236 236 233 230 229 228 227 225 223 223 223 222 222 221 221 222 225 228 229 229 230
286 286 287 288 288 289 290 291 291 292 293 293 293 293 293 293 293 294 294 295 295 296 297 297 298 298 298 298 298 299 299 300 301 301 301 301 301 300 300 300 300 299 299 299 299 299 298 298 297 295 293 290 286 281 275 267 260 257 256 254 250 246 242 237 234 233 232 230 227 227 226 224 222 222 222 221 221 221 220 220 223 227 229 229 230
285 286 287 287 288 289 289 290 291 291 291 292 292 293 293 293 293 294 295 296 297 297 298 298 298 298 298 298 299 300 300 301 301 301 302 302 302 301 301 301 301 301 302 302 302 302 301 300 298 296 294 293 290 286 280 272 262 255 254 253 250 246 242 237 232 230 230 228 226 225 224 223 221 221 221 220 220 220 220 220 222 226 228 229 230
284 285 286 287 288 288 288 289 290 291 291 292 292 293 293 294 295 296 296 297 298 298 298 298 298 298 299 299 300 301 301 302 302 303 303 303 303 303 303 303 304 304 304 304 303 303 302 300 299 297 294 293 291 287 282 276 266 256 252 251 248 245 242 237 232 228 227 227 225 223 223 222 221 220 220 220 219 219 220 220 221 224 226 228 229
284 285 286 287 287 287 288 289 290 290 291 292 293 294 294 295 296 297 297 297 297 297 298 298 299 300 300 301 302 302 303 304 304 305 305 305 305 306 306 306 307 307 307 306 306 306 305 304 303 300 297 294 291 287 281 277 269 258 251 249 247 243 241 237 231 227 225 225 224 222 221 221 220 219 219 219 219 219 219 220 221 223 225 227 229
284 285 285 286 286 287 288 289 290 291 292 293 294 294 295 296 297 297 297 297 297 298 299 300 300 301 302 302 303 304 305 306 307 307 308 308 308 309 309 310 310 311 312 311 311 310 309 308 306 304 300 296 293 288 282 276 270 260 251 247 244 242 240 236 231 226 224 223 222 221 220 220 219 218 217 218 219 219 219 219 220 222 224 227 228
284 284 285 285 286 287 288 289 290 291 292 293 294 295 296 296 296 296 297 298 299 300 300 301 301 302 303 304 305 306 307 308 309 310 311 311 312 312 313 314 315 316 315 315 314 313 313 312 311 309 305 299 294 290 284 277 271 261 252 246 242 239 238 235 230 226 222 221 221 220 219 219 219 218 217 217 218 219 219 219 220 221 224 226 228
283 283 284 285 286 287 289 290 291 292 293 294 295 295 295 295 296 297 299 300 300 301 301 302 302 303 304 305 306 307 309 310 312 313 313 314 315 316 316 316 316 316 316 316 315 315 316 315 314 312 308 302 297 293 286 279 272 262 252 244 240 238 237 234 229 225 222 220 220 219 218 217 217 217 216 216 216 218 219 219 219 221 223 225 226
283 284 285 286 287 288 290 291 292 293 293 294 294 295 296 297 298 299 300 301 301 302 303 303 304 305 305 306 308 309 311 312 314 315 315 316 316 316 316 316 316 316 317 316 316 315 315 315 313 312 309 302 297 294 289 281 272 262 251 243 239 237 236 233 229 224 221 219 219 218 217 216 216 216 216 215 216 217 218 219 219 221 223 224 225
284 285 286 288 289 290 291 292 293 293 293 294 295 296 298 299 299 300 301 301 302 302 303 304 305 306 307 308 309 311 312 314 315 315 315 315 314 315 315 316 317 317 317 317 316 316 316 317 316 314 313 307 300 294 290 283 273 262 251 242 238 237 235 232 227 223 220 218 218 218 217 216 215 215 215 215 215 216 218 218 219 220 222 224 225
286 287 288 289 290 291 292 292 292 293 294 296 297 298 299 299 300 301 301 302 302 303 304 305 306 307 307 308 309 311 313 314 315 314 314 315 315 317 318 319 320 319 319 320 319 319 320 319 318 315 313 310 305 298 291 284 274 262 250 241 237 236 235 232 227 222 220 218 217 217 217 215 215 215 215 215 216 216 217 218 219 220 221 223 224
287 288 289 290 290 291 291 292 293 295 296 297 298 299 299 300 301 301 302 302 302 303 305 306 307 307 307 308 310 312 313 314 313 314 316 318 319 321 322 323 323 322 323 324 324 322 321 320 318 315 312 310 306 300 293 284 274 263 251 241 237 235 233 231 227 222 219 218 216 216 216 215 214 214 215 215 216 217 217 219 220 220 221 223 224
288 288 289 290 290 291 292 294 295 296 297 298 298 299 300 301 301 301 302 302 303 304 306 306 307 307 308 309 311 313 314 314 314 316 319 322 323 324 325 326 326 326 326 326 325 323 321 321 321 319 316 312 308 303 295 286 275 263 251 242 237 235 233 230 226 222 219 217 216 216 216 216 215 215 215 215 216 217 217 219 220 221 222 223 223
288 288 289 290 291 292 294 295 296 297 298 299 299 300 301 301 301 301 301 302 304 305 306 306 306 308 309 311 312 313 314 314 316 319 322 325 326 327 328 329 330 329 327 326 326 326 325 325 325 324 321 317 312 306 299 289 277 265 253 243 238 235 233 230 226 222 219 218 216 216 216 216 216 215 215 216 216 216 217 218 220 222 222 223 224
288 289 290 291 292 293 294 295 297 298 299 300 300 300 300 300 300 301 302 303 304 305 305 306 307 308 310 311 312 312 313 315 318 322 325 328 329 330 331 332 331 330 329 329 330 330 329 328 329 328 325 322 316 310 303 292 280 267 255 245 238 235 233 231 228 223 220 218 217 216 216 216 216 216 216 216 216 216 217 218 220 221 223 223 224
288 289 290 291 292 294 295 296 298 298 299 300 300 299 299 299 300 301 302 303 304 304 305 306 307 308 309 311 311 312 314 317 322 326 329 332 333 334 335 336 335 334 333 334 334 334 332 331 331 331 329 326 321 315 307 297 284 270 257 246 239 235 233 231 228 224 221 219 217 216 216 216 216 216 217 216 216 216 217 218 220 221 222 223 224
288 289 291 292 293 295 296 297 298 298 299 299 298 298 298 299 300 302 303 303 304 304 305 306 307 308 310 311 312 313 316 320 325 329 332 334 335 336 337 339 339 338 337 336 337 336 335 332 333 333 333 330 327 321 313 303 290 274 260 248 240 235 233 231 228 225 222 220 218 217 216 216 216 217 217 217 216 216 217 218 220 221 222 223 223
289 290 291 293 294 295 296 296 297 297 298 297 297 297 298 300 301 302 303 304 304 305 305 307 307 309 310 311 312 314 318 322 327 331 334 335 336 337 339 341 341 340 339 338 338 339 338 335 334 335 336 335 332 327 320 310 296 280 265 252 242 236 233 231 228 226 223 221 219 217 217 216 216 217 217 217 217 217 217 218 220 222 223 224 224
289 290 291 293 294 295 295 295 296 296 296 296 296 297 299 301 302 302 303 303 303 304 305 307 307 308 309 310 312 315 319 323 327 331 334 336 338 340 341 342 343 343 342 340 340 340 340 339 337 336 338 339 338 334 328 319 305 288 270 256 245 238 234 232 229 227 224 221 219 218 217 217 217 217 218 218 218 218 218 219 220 222 223 224 225
289 290 291 293 293 294 294 294 294 295 295 296 297 298 299 300 301 301 301 301 302 303 305 306 307 307 308 310 313 317 321 324 328 332 335 338 341 343 343 343 344 344 344 343 342 342 342 341 340 339 340 341 342 341 336 329 316 298 278 261 249 241 236 233 231 228 225 222 220 219 218 218 218 218 219 219 219 219 219 220 220 222 224 225 226
288 289 290 291 292 292 292 293 294 294 295 296 297 298 298 299 299 299 299 299 301 303 304 305 305 306 308 311 314 318 322 326 329 333 336 340 342 344 344 344 344 345 345 345 344 343 343 343 343 342 342 343 344 345 343 337 327 310 288 268 255 245 238 234 232 230 227 224 222 220 220 219 219 219 219 219 220 220 220 221 221 223 224 226 227
287 288 289 290 290 291 292 292 293 294 295 295 296 296 297 297 296 296 297 298 300 302 303 303 304 306 308 311 315 319 323 326 330 333 337 340 342 344 344 345 345 345 345 346 346 345 344 344 344 344 344 345 345 346 345 342 335 322 302 277 260 250 242 236 233 231 229 227 224 222 221 221 220 220 220 220 221 221 222 222 223 224 225 226 227
286 287 288 289 290 291 291 292 293 293 293 294 294 295 294 294 293 294 295 297 299 301 302 303 304 306 308 311 315 319 323 326 330 333 336 339 342 343 344 345 346 346 346 346 347 347 347 345 345 345 346 347 347 347 346 345 341 332 316 292 269 255 246 240 235 232 231 229 226 224 223 222 222 221 221 221 221 222 223 223 224 225 226 227 228
286 287 288 289 290 291 291 291 291 292 292 292 293 292 292 291 291 292 294 297 299 300 301 302 304 306 308 311 316 320 323 326 330 333 336 338 340 342 343 345 346 346 346 347 347 348 348 347 346 346 346 347 348 348 347 345 343 338 327 309 283 263 251 244 239 234 232 230 229 227 225 224 223 223 222 222 222 223 224 224 225 226 227 228 229
286 287 289 290 290 290 290 290 290 290 291 291 290 290 289 289 291 293 295 298 299 300 300 301 304 306 309 312 316 320 323 326 329 332 335 337 339 340 342 344 345 346 347 347 348 348 349 349 348 347 346 346 347 348 348 346 344 339 333 321 301 276 259 249 242 238 234 232 230 229 228 226 225 224 224 224 224 224 225 225 226 227 228 229 229
287 288 289 289 289 288 289 289 289 290 290 289 288 288 288 289 292 294 297 299 300 300 301 302 304 306 310 313 317 320 323 326 329 331 333 335 337 339 341 343 344 345 346 347 348 349 349 349 348 348 347 346 345 345 346 346 345 342 337 329 315 294 271 256 248 242 238 234 232 231 230 229 228 227 226 226 225 225 226 226 227 228 229 230 230
286 287 287 287 287 287 288 288 289 289 288 288 287 288 288 290 293 296 298 299 300 301 302 303 305 308 311 314 317 320 323 326 328 330 332 334 336 338 340 342 343 344 345 346 347 348 349 349 349 348 347 347 346 345 344 345 345 344 340 334 324 310 289 268 254 247 243 239 235 233 232 231 230 229 229 228 228 227 227 228 228 229 230 231 231
284 285 285 285 286 286 287 288 288 288 287 287 287 288 289 291 294 296 298 299 300 302 303 305 307 310 312 315 317 319 322 324 326 328 330 332 334 337 338 340 342 343 344 345 346 348 348 349 349 348 348 347 346 345 344 343 343 343 342 338 331 320 305 286 267 254 248 244 240 237 234 233 232 232 231 231 230 230 230 229 230 230 231 231 232
282 283 284 285 286 286 287 287 287 286 287 287 287 289 291 293 295 296 297 299 301 303 305 306 308 311 313 315 317 318 320 322 325 327 329 331 333 335 337 339 340 342 343 344 345 346 347 348 348 348 348 347 346 345 344 343 342 341 340 338 334 326 315 301 284 267 255 248 245 241 239 236 235 234 233 233 232 232 232 232 232 232 232 232 233
281 282 284 286 286 286 286 285 285 286 286 287 288 290 292 293 294 295 296 299 302 304 306 307 309 311 313 315 316 318 319 321 323 325 328 330 332 334 336 337 339 340 341 343 344 345 346 347 347 347 347 347 346 345 344 343 342 341 339 337 335 331 323 311 297 283 269 257 250 246 243 241 239 237 236 235 235 234 234 234 234 234 234 234 234
281 282 284 285 286 285 285 285 285 285 286 288 289 291 292 292 293 294 297 300 303 304 306 307 309 311 312 314 315 317 318 320 322 324 327 329 331 333 334 336 337 338 339 341 342 343 344 345 345 346 346 346 345 345 344 343 342 341 339 337 334 331 326 320 309 295 281 270 260 253 248 245 243 241 240 238 238 237 237 236 236 236 236 236 236
282 283 284 284 285 285 284 284 285 286 287 288 290 291 292 293 294 296 298 300 302 303 305 306 308 310 312 313 315 316 318 320 322 324 326 328 330 332 333 334 336 337 338 339 340 341 342 343 344 344 345 344 344 344 343 343 342 340 338 337 334 330 326 322 316 306 294 281 270 262 256 252 248 246 244 242 241 240 239 239 239 238 238 238 238
Height
10639 10638 10636 10634 10633 10632 10630 10629 10627 10626 10624 10623 10621 10619 10618 10616 10614 10613 10611 10609 10607 10605 10603 10601 10599 10597 10595 10593 10591 10589 10588 10585 10583 10581 10580 10578 10577 10575 10574 10572 10570 10568 10566 10565 10564 10564 10562 10561 10561 10560 10559 10559 10559 10559 10559 10559 10560 10561 10563 10566 10567 10569 10571 10573 10574 10571 10570 10573 10576 10579 10581 10580 10578 10579 10579 10581 10585 10589 10593 10596 10600 10604 10607 10610 10613
10633 10631 10630 10628 10627 10625 10624 10623 10621 10619 10618 10616 10615 10613 10612 10610 10608 10606 10605 10603 10601 10599 10597 10595 10592 10590 10588 10586 10584 10582 10580 10578 10575 10573 10571 10569 10567 10565 10564 10562 10561 10559 10557 10556 10555 10554 10553 10553 10552 10551 10550 10550 10550 10550 10550 10550 10551 10552 10553 10556 10558 10559 10561 10563 10565 10565 10563 10565 10568 10571 10573 10572 10572 10573 10574 10576 10580 10583 10587 10591 10594 10598 10601 10603 10606
10627 10626 10624 10622 10621 10619 10617 10616 10614 10613 10611 10609 10608 10606 10605 10603 10601 10599 10597 10596 10594 10592 10590 10588 10585 10583 10581 10578 10576 10574 10572 10570 10567 10564 10562 10559 10557 10555 10554 10552 10551 10549 10548 10547 10545 10544 10543 10543 10543 10542 10541 10541 10541 10541 10541 10541 10542 10542 10543 10546 10549 10550 10552 10554 10557 10558 10557 10557 10560 10563 10565 10566 10566 10567 10569 10572 10575 10578 10582 10585 10588 10591 10594 10597 10600
10621 10620 10618 10616 10614 10613 10611 10609 10607 10606 10604 10603 10601 10599 10597 10595 10594 10592 10590 10588 10586 10584 10582 10580 10578 10576 10573 10571 10568 10565 10563 10561 10558 10556 10553 10550 10548 10545 10543 10542 10540 10539 10538 10537 10535 10534 10534 10533 10533 10533 10533 10532 10531 10531 10532 10532 10533 10534 10534 10536 10539 10541 10542 10545 10548 10550 10550 10550 10552 10554 10557 10559 10560 10561 10564 10568 10570 10573 10576 10578 10581 10584 10587 10590 10593
10615 10614 10612 10610 10608 10607 10605 10603 10601 10599 10598 10596 10594 10592 10590 10588 10586 10584 10582 10580 10578 10575 10573 10571 10569 10567 10564 10562 10559 10557 10554 10551 10549 10546 10544 10541 10538 10535 10533 10531 10530 10529 10528 10527 10525 10524 10524 10523 10523 10523 10523 10523 10522 10521 10522 10522 10523 10524 10525 10527 10529 10531 10533 10536 10538 10541 10543 10543 10544 10546 10549 10552 10554 10556 10559 10562 10564 10566 10570 10572 10575 10577 10580 10583 10587
10609 10608 10606 10604 10602 10600 10598 10596 10595 10593 10591 10589 10586 10584 10582 10580 10578 10576 10574 10571 10569 10567 10564 10562 10560 10558 10556 10553 10551 10548 10545 10542 10539 10536 10533 10531 10528 10526 10524 10522 10520 10519 10518 10516 10515 10514 10513 10513 10513 10513 10513 10513 10512 10511 10511 10512 10513 10515 10516 10517 10519 10522 10524 10526 10529 10532 10534 10536 10537 10539 10542 10544 10547 10550 10553 10556 10558 10560 10562 10565 10568 10571 10574 10577 10580
10602 10600 10599 10597 10595 10593 10591 10590 10588 10586 10583 10581 10579 10576 10574 10572 10570 10568 10565 10563 10561 10558 10556 10553 10551 10549 10547 10544 10541 10538 10535 10532 10529 10526 10523 10520 10518 10516 10514 10512 10510 10509 10508 10506 10505 10504 10503 10502 10502 10502 10502 10502 10502 10502 10501 10501 10502 10504 10507 10508 10509 10512 10514 10516 10520 10523 10525 10527 10529 10531 10534 10537 10540 10543 10545 10548 10550 10552 10554 10558 10562 10564 10568 10571 10573
10595 10593 10591 10589 10588 10586 10584 10582 10580 10578 10576 10573 10571 10568 10566 10564 10561 10559 10557 10554 10552 10550 10547 10545 10542 10540 10537 10534 10532 10529 10525 10522 10518 10515 10512 10510 10508 10506 10504 10502 10500 10498 10496 10495 10494 10493 10492 10491 10491 10491 10491 10491 10491 10491 10491 10491 10491 10493 10496 10498 10500 10501 10504 10507 10510 10513 10516 10518 10520 10523 10526 10529 10531 10533 10535 10538 10541 10544 10547 10551 10554 10557 10560 10564 10567
10587 10585 10583 10582 10580 10578 10576 10574 10572 10570 10567 10565 10563 10560 10558 10555 10553 10550 10548 10545 10543 10540 10538 10535 10533 10530 10527 10524 10522 10519 10515 10512 10509 10506 10502 10499 10497 10496 10494 10492 10490 10488 10485 10483 10481 10480 10479 10479 10479 10479 10480 10481 10481 10480 10480 10481 10481 10482 10484 10487 10490 10491 10493 10496 10500 10503 10506 10509 10511 10514 10518 10521 10522 10524 10527 10531 10534 10537 10539 10542 10546 10550 10553 10556 10560
10580 10578 10576 10575 10573 10570 10568 10566 10564 10562 10559 10557 10555 10552 10549 10547 10544 10541 10539 10536 10534 10531 10529 10526 10524 10521 10518 10515 10512 10509 10506 10503 10500 10497 10494 10491 10488 10485 10483 10481 10480 10478 10475 10473 10470 10468 10467 10466 10466 10466 10468 10469 10470 10470 10469 10470 10471 10472 10473 10475 10478 10481 10483 10486 10489 10493 10497 10499 10502 10505 10509 10512 10514 10516 10520 10524 10526 10529 10532 10535 10539 10542 10545 10549 10553
10574 10572 10570 10568 10565 10563 10561 10559 10556 10554 10552 10549 10547 10544 10542 10539 10536 10533 10531 10528 10525 10523 10520 10518 10515 10512 10509 10506 10503 10500 10496 10493 10490 10487 10484 10482 10479 10476 10473 10471 10469 10466 10464 10462 10460 10457 10455 10453 10452 10453 10454 10456 10457 10458 10458 10458 10459 10461 10462 10463 10466 10469 10472 10475 10478 10482 10486 10490 10493 10495 10499 10502 10504 10507 10512 10515 10518 10521 10524 10528 10531 10534 10538 10543 10547
10568 10565 10563 10561 10558 10556 10554 10551 10549 10547 10544 10542 10539 10537 10534 10531 10528 10525 10523 10520 10518 10515 10512 10510 10507 10504 10500 10497 10493 10490 10486 10483 10480 10477 10474 10471 10469 10466 10463 10460 10458 10455 10453 10450 10448 10446 10444 10441 10439 10439 10439 10441 10443 10445 10446 10446 10447 10448 10450 10452 10454 10457 10460 10464 10467 10471 10476 10480 10483 10485 10489 10492 10495 10499 10503 10506 10509 10512 10515 10518 10523 10527 10531 10535 10540
10561 10558 10556 10553 10551 10549 10546 10544 10542 10539 10537 10534 10532 10529 10526 10524 10521 10518 10515 10513 10510 10507 10505 10502 10499 10495 10492 10488 10484 10480 10477 10473 10470 10467 10464 10460 10458 10455 10452 10449 10447 10444 10441 10439 10436 10434 10432 10429 10427 10425 10425 10426 10428 10430 10432 10432 10433 10435 10438 10440 10442 10444 10448 10452 10456 10460 10464 10469 10473 10475 10478 10482 10486 10490 10493 10496 10500 10504 10506 10510 10515 10520 10524 10529 10533
10554 10551 10548 10546 10543 10541 10539 10537 10534 10532 10529 10527 10524 10521 10519 10516 10513 10511 10508 10505 10503 10500 10497 10494 10490 10487 10483 10479 10475 10471 10468 10464 10460 10456 10453 10449 10446 10443 10440 10436 10434 10432 10429 10426 10424 10421 10418 10416 10414 10412 10411 10411 10412 10414 10416 10417 10418 10420 10423 10426 10429 10431 10435 10440 10444 10448 10453 10458 10463 10465 10467 10472 10477 10479 10483 10487 10492 10496 10499 10503 10507 10513 10518 10521 10524
10546 10543 10540 10538 10536 10534 10531 10529 10527 10524 10522 10519 10517 10514 10511 10509 10506 10503 10501 10498 10495 10492 10489 10485 10482 10478 10474 10470 10467 10463 10458 10454 10450 10446 10442 10438 10435 10432 10428 10424 10421 10418 10415 10412 10410 10407 10405 10402 10400 10398 10397 10396 10396 10397 10399 10401 10402 10404 10407 10411 10414 10417 10421 10426 10431 10436 10441 10446 10452 10455 10456 10461 10466 10469 10473 10478 10483 10488 10492 10495 10499 10504 10508 10510 10513
10538 10535 10533 10530 10528 10526 10524 10522 10519 10517 10514 10512 10509 10506 10504 10501 10498 10496 10492 10489 10486 10483 10479 10476 10473 10469 10466 10462 10458 10454 10450 10445 10441 10436 10432 10428 10424 10420 10416 10411 10407 10403 10400 10397 10394 10392 10390 10388 10385 10383 10381 10381 10380 10381 10382 10383 10385 10387 10390 10393 10398 10402 10406 10412 10418 10424 10428 10434 10439 10443 10445 10449 10455 10459 10464 10469 10475 10479 10483 10486 10490 10495 10499 10502 10507
10530 10527 10525 10522 10520 10518 10517 10514 10512 10509 10507 10504 10502 10499 10496 10494 10491 10487 10484 10481 10477 10474 10470 10467 10464 10461 10457 10454 10449 10445 10440 10435 10431 10426 10422 10418 10413 10408 10403 10398 10394 10389 10385 10382 10379 10376 10374 10372 10370 10368 10366 10365 10365 10365 10366 10367 10367 10369 10372 10376 10380 10386 10391 10397 10403 10410 10416 10421 10426 10431 10434 10438 10444 10450 10454 10459 10465 10470 10474 10478 10483 10487 10491 10495 10501
10522 10520 10517 10515 10513 10511 10509 10507 10504 10502 10499 10497 10494 10491 10489 10486 10483 10480 10476 10473 10469 10466 10462 10459 10456 10452 10449 10445 10440 10435 10430 10425 10421 10416 10412 10408 10403 10398 10392 10386 10382 10376 10371 10368 10365 10361 10359 10356 10355 10353 10352 10352 10351 10350 10351 10352 10351 10352 10355 10358 10363 10369 10376 10382 10389 10396 10403 10408 10413 10418 10423 10427 10434 10440 10444 10449 10455 10460 10466 10471 10475 10479 10483 10488 10493
10515 10513 10510 10508 10506 10504 10502 10499 10497 10494 10492 10489 10486 10484 10481 10479 10476 10472 10469 10465 10461 10458 10455 10451 10447 10444 10440 10435 10431 10426 10421 10416 10412 10407 10403 10398 10393 10387 10381 10375 10370 10365 10360 10355 10352 10349 10345 10342 10340 10338 10338 10338 10338 10337 10337 10337 10337 10337 10339 10343 10347 10352 10360 10367 10373 10380 10388 10395 10400 10405 10411 10417 10423 10429 10434 10439 10445 10451 10457 10463 10466 10470 10474 10480 10484
10508 10506 10504 10501 10499 10497 10494 10492 10490 10487 10484 10482 10479 10476 10474 10471 10468 10465 10461 10458 10454 10450 10446 10443 10439 10435 10431 10426 10421 10416 10411 10407 10402 10398 10393 10388 10382 10376 10371 10365 10360 10355 10350 10346 10342 10338 10334 10330 10326 10324 10323 10324 10325 10324 10324 10324 10323 10323 10324 10328 10332 10337 10344 10352 10358 10365 10373 10381 10387 10393 10399 10406 10412 10417 10423 10429 10435 10441 10448 10454 10458 10461 10466 10470 10474
10501 10499 10497 10494 10492 10489 10487 10485 10482 10480 10477 10474 10472 10469 10467 10464 10461 10457 10454 10450 10447 10443 10439 10435 10431 10426 10422 10417 10412 10407 10403 10398 10393 10388 10383 10378 10372 10367 10361 10357 10352 10346 10341 10336 10333 10330 10325 10320 10316 10312 10310 10310 10312 10311 10311 10311 10311 10311 10312 10315 10319 10323 10329 10337 10344 10351 10358 10367 10374 10380 10387 10394 10400 10406 10413 10419 10425 10431 10438 10445 10449 10452 10456 10461 10465
10494 10492 10490 10488 10485 10483 10480 10478 10475 10473 10470 10467 10465 10462 10459 10456 10453 10450 10446 10442 10439 10435 10431 10427 10422 10418 10413 10408 10404 10399 10394 10389 10384 10379 10374 10369 10363 10358 10352 10348 10343 10338 10332 10327 10323 10320 10316 10312 10308 10303 10299 10299 10300 10299 10298 10299 10300 10300 10301 10304 10308 10311 10316 10322 10330 10338 10344 10353 10361 10368 10375 10382 10389 10395 10402 10409 10416 10422 10428 10434 10439 10443 10448 10453 10456
10487 10485 10483 10481 10478 10476 10473 10471 10468 10466 10463 10460 10457 10454 10451 10448 10446 10442 10439 10435 10431 10427 10423 10418 10414 10409 10404 10399 10395 10390 10386 10381 10376 10371 10366 10360 10355 10349 10343 10339 10334 10329 10324 10319 10315 10311 10308 10304 10300 10295 10290 10289 10290 10290 10288 10287 10289 10291 10291 10293 10297 10300 10304 10310 10318 10325 10332 10340 10348 10356 10363 10371 10378 10385 10391 10399 10406 10412 10418 10424 10429 10434 10439 10442 10446
10480 10478 10476 10474 10471 10469 10467 10464 10461 10459 10456 10453 10450 10447 10444 10441 10438 10434 10431 10427 10423 10419 10415 10410 10405 10400 10395 10390 10386 10381 10377 10372 10367 10362 10357 10352 10347 10340 10334 10329 10325 10320 10315 10311 10307 10303 10299 10295 10292 10287 10282 10280 10280 10280 10279 10278 10279 10281 10282 10284 10287 10290 10293 10298 10305 10313 10320 10327 10336 10345 10352 10359 10367 10374 10381 10388 10395 10402 10408 10414 10420 10424 10429 10432 10436
10473 10471 10469 10467 10464 10462 10460 10457 10455 10452 10449 10447 10444 10440 10437 10433 10430 10427 10423 10419 10416 10411 10407 10402 10396 10391 10386 10381 10377 10372 10368 10364 10359 10355 10349 10344 10338 10332 10326 10320 10316 10311 10306 10300 10297 10293 10290 10287 10284 10280 10276 10272 10272 10272 10270 10269 10270 10272 10274 10276 10278 10280 10284 10289 10296 10303 10310 10316 10324 10333 10341 10348 10356 10364 10371 10379 10386 10393 10399 10405 10410 10415 10419 10422 10427
10466 10464 10462 10460 10458 10455 10453 10450 10448 10445 10443 10440 10437 10434 10430 10426 10423 10419 10415 10411 10407 10403 10398 10394 10388 10383 10379 10374 10369 10365 10361 10356 10352 10347 10342 10336 10330 10324 10317 10311 10306 10301 10296 10291 10287 10284 10281 10278 10275 10273 10269 10265 10264 10264 10263 10262 10263 10265 10266 10268 10269 10272 10275 10280 10286 10293 10299 10305 10313 10321 10330 10338 10345 10354 10362 10370 10377 10383 10389 10395 10400 10405 10409 10413 10419
10459 10457 10455 10453 10451 10448 10446 10444 10441 10439 10436 10433 10430 10427 10424 10420 10416 10411 10407 10403 10399 10394 10390 10385 10380 10376 10372 10367 10363 10359 10355 10351 10346 10340 10334 10329 10323 10316 10310 10304 10300 10295 10290 10284 10279 10276 10273 10269 10267 10266 10263 10259 10256 10256 10256 10255 10256 10257 10259 10260 10262 10264 10267 10272 10277 10283 10289 10296 10303 10311 10320 10328 10336 10344 10353 10360 10367 10373 10379 10385 10390 10395 10399 10404 10410
10452 10450 10448 10446 10443 10441 10439 10437 10435 10432 10429 10427 10424 10421 10417 10413 10408 10404 10400 10395 10391 10386 10382 10377 10372 10368 10364 10361 10357 10354 10350 10346 10341 10335 10329 10324 10318 10313 10306 10300 10295 10290 10285 10280 10274 10271 10267 10263 10260 10258 10257 10254 10251 10250 10250 10249 10249 10251 10252 10254 10255 10257 10260 10264 10269 10275 10282 10288 10294 10302 10310 10319 10327 10335 10343 10350 10357 10362 10367 10374 10380 10385 10390 10396 10401
10445 10442 10440 10438 10436 10434 10432 10430 10428 10425 10422 10420 10417 10414 10410 10406 10401 10396 10392 10388 10383 10380 10376 10371 10367 10362 10358 10354 10351 10348 10344 10340 10336 10332 10326 10321 10315 10311 10305 10298 10292 10287 10282 10276 10271 10266 10263 10259 10255 10251 10250 10248 10247 10245 10244 10244 10244 10245 10246 10248 10249 10251 10253 10258 10263 10268 10274 10280 10286 10293 10301 10310 10318 10325 10333 10340 10345 10350 10356 10363 10371 10376 10382 10387 10393
10437 10435 10433 10431 10429 10427 10425 10423 10421 10418 10416 10413 10410 10407 10403 10398 10394 10389 10384 10380 10376 10373 10370 10366 10362 10358 10354 10350 10347 10343 10340 10336 10332 10329 10324 10317 10311 10306 10300 10294 10287 10282 10277 10272 10266 10261 10258 10255 10251 10247 10245 10243 10241 10240 10239 10239 10239 10240 10241 10242 10243 10245 10248 10252 10256 10261 10267 10272 10278 10285 10292 10301 10309 10316 10323 10329 10334 10340 10347 10354 10361 10367 10372 10378 10384
10430 10428 10426 10424 10423 10421 10419 10416 10414 10411 10409 10406 10402 10399 10395 10391 10386 10382 10378 10373 10370 10367 10364 10360 10357 10354 10350 10347 10343 10340 10336 10333 10329 10325 10320 10314 10307 10300 10295 10289 10283 10277 10272 10268 10263 10258 10254 10251 10248 10244 10241 10239 10237 10236 10235 10234 10234 10235 10236 10237 10238 10240 10242 10246 10250 10255 10260 10265 10271 10277 10284 10291 10298 10305 10313 10319 10325 10333 10342 10348 10354 10359 10364 10370 10375
10423 10421 10420 10418 10416 10414 10412 10409 10407 10404 10401 10398 10395 10391 10388 10383 10379 10375 10371 10368 10364 10361 10358 10355 10352 10349 10345 10342 10338 10335 10332 10328 10325 10321 10316 10310 10304 10297 10291 10285 10279 10273 10268 10264 10261 10256 10251 10248 10244 10241 10238 10235 10233 10232 10231 10230 10230 10230 10231 10232 10233 10235 10238 10241 10245 10249 10254 10259 10265 10270 10276 10282 10290 10297 10304 10311 10319 10328 10336 10341 10346 10352 10356 10361 10367
10416 10414 10413 10411 10410 10407 10405 10402 10400 10397 10394 10390 10387 10384 10380 10376 10372 10369 10366 10363 10360 10357 10354 10351 10348 10344 10341 10337 10334 10330 10327 10324 10320 10316 10312 10307 10301 10295 10289 10283 10277 10271 10265 10260 10257 10253 10248 10244 10241 10238 10235 10232 10230 10228 10227 10226 10226 10226 10227 10228 10229 10231 10233 10236 10240 10244 10249 10254 10259 10264 10270 10276 10284 10290 10297 10304 10312 10319 10327 10333 10338 10343 10349 10354 10360
10409 10407 10406 10404 10402 10400 10397 10395 10393 10390 10386 10383 10379 10376 10373 10370 10366 10364 10361 10358 10355 10353 10350 10347 10344 10341 10337 10334 10331 10327 10324 10320 10316 10312 10307 10303 10297 10292 10286 10280 10275 10270 10264 10258 10253 10249 10245 10241 10238 10235 10232 10229 10227 10225 10224 10223 10223 10223 10223 10224 10226 10227 10229 10232 10236 10240 10244 10249 10254 10259 10264 10270 10276 10283 10289 10296 10304 10312 10318 10324 10329 10334 10341 10347 10352
10402 10400 10398 10397 10395 10393 10390 10387 10385 10382 10379 10376 10372 10369 10366 10364 10361 10359 10356 10354 10351 10349 10346 10343 10340 10337 10334 10331 10328 10324 10320 10317 10313 10308 10303 10298 10292 10287 10282 10277 10271 10266 10261 10256 10251 10247 10243 10239 10236 10233 10230 10227 10224 10223 10221 10220 10220 10220 10220 10221 10222 10224 10226 10229 10232 10236 10240 10244 10248 10253 10258 10264 10270 10276 10283 10290 10298 10305 10311 10316 10321 10326 10331 10337 10343
10395 10393 10391 10389 10387 10385 10383 10380 10377 10375 10373 10369 10366 10363 10360 10358 10356 10354 10352 10349 10346 10344 10342 10339 10336 10333 10330 10327 10324 10321 10317 10313 10309 10305 10300 10295 10290 10285 10280 10275 10269 10263 10258 10254 10250 10245 10241 10237 10234 10231 10228 10225 10222 10220 10219 10218 10217 10217 10217 10218 10219 10220 10222 10225 10228 10231 10235 10239 10244 10248 10253 10259 10264 10270 10276 10283 10290 10297 10303 10309 10313 10318 10323 10328 10333
10388 10386 10384 10382 10380 10378 10376 10373 10371 10369 10366 10363 10360 10357 10355 10353 10351 10349 10347 10344 10342 10340 10337 10335 10332 10330 10327 10324 10321 10318 10314 10310 10306 10303 10299 10294 10289 10283 10278 10273 10268 10263 10257 10252 10248 10244 10240 10236 10232 10229 10226 10224 10221 10219 10217 10216 10215 10215 10215 10215 10216 10217 10219 10221 10224 10227 10231 10235 10239 10243 10248 10253 10258 10263 10269 10275 10282 10288 10294 10300 10305 10310 10314 10319 10324
10380 10378 10377 10375 10373 10371 10369 10366 10364 10362 10360 10358 10355 10352 10350 10348 10346 10344 10342 10340 10338 10336 10333 10331 10328 10326 10323 10321 10318 10314 10311 10307 10304 10300 10296 10292 10286 10280 10275 10271 10267 10262 10257 10251 10247 10243 10239 10234 10231 10228 10225 10222 10220 10217 10215 10214 10213 10212 10212 10212 10213 10214 10216 10218 10220 10223 10227 10231 10235 10239 10243 10247 10252 10257 10262 10268 10275 10281 10287 10292 10297 10301 10305 10310 10315
10373 10372 10370 10369 10367 10364 10362 10360 10358 10356 10354 10352 10349 10347 10345 10343 10341 10339 10337 10336 10334 10332 10330 10327 10325 10322 10320 10317 10314 10311 10307 10304 10300 10297 10293 10288 10283 10278 10273 10268 10264 10260 10256 10251 10246 10241 10238 10234 10230 10226 10224 10221 10218 10216 10214 10212 10211 10211 10210 10210 10211 10211 10213 10214 10217 10220 10223 10226 10230 10234 10238 10242 10246 10251 10257 10262 10268 10274 10279 10285 10289 10293 10297 10301 10306
10367 10365 10364 10363 10361 10358 10356 10354 10352 10350 10348 10346 10344 10342 10340 10339 10337 10335 10334 10332 10330 10328 10326 10324 10321 10319 10316 10314 10311 10308 10304 10301 10297 10293 10290 10286 10281 10276 10272 10267 10262 10258 10254 10250 10245 10241 10237 10233 10229 10226 10222 10220 10217 10215 10213 10211 10210 10209 10208 10208 10208 10209 10210 10211 10213 10216 10219 10222 10225 10229 10233 10237 10241 10246 10251 10256 10261 10266 10272 10277 10281 10285 10289 10293 10298
10360 10359 10358 10356 10354 10352 10350 10348 10346 10344 10342 10341 10339 10337 10336 10334 10333 10332 10330 10328 10327 10325 10323 10321 10318 10316 10313 10311 10308 10305 10302 10298 10294 10290 10287 10283 10279 10275 10270 10266 10261 10256 10252 10248 10244 10240 10236 10232 10229 10225 10222 10219 10216 10214 10212 10210 10209 10208 10207 10206 10206 10207 10207 10209 10210 10212 10215 10218 10221 10224 10228 10232 10236 10240 10245 10249 10254 10259 10264 10268 10273 10277 10281 10285 10289
10354 10353 10352 10350 10348 10346 10344 10342 10340 10339 10337 10335 10334 10332 10331 10330 10329 10328 10326 10325 10323 10322 10320 10318 10315 10312 10310 10308 10305 10303 10299 10296 10292 10288 10285 10281 10278 10274 10269 10265 10260 10256 10251 10247 10243 10239 10235 10231 10227 10224 10221 10218 10216 10213 10211 10210 10208 10207 10206 10205 10205 10205 10205 10206 10207 10209 10211 10214 10217 10220 10223 10226 10230 10234 10238 10243 10247 10251 10256 10260 10264 10268 10273 10277 10281
10347 10346 10345 10344 10342 10340 10338 10337 10335 10333 10332 10331 10329 10328 10327 10326 10325 10324 10323 10321 10320 10318 10316 10314 10312 10309 10307 10304 10302 10300 10297 10293 10290 10286 10283 10279 10276 10272 10268 10264 10260 10255 10251 10246 10242 10238 10234 10231 10227 10223 10220 10218 10215 10213 10210 10209 10207 10206 10205 10204 10203 10203 10203 10203 10204 10206 10208 10210 10212 10215 10218 10221 10225 10228 10232 10236 10240 10244 10248 10252 10256 10260 10264 10268 10272
10341 10340 10339 10338 10336 10334 10332 10331 10330 10328 10327 10326 10325 10324 10323 10321 10320 10319 10318 10317 10316 10314 10313 10311 10309 10307 10304 10301 10299 10296 10294 10291 10287 10284 10281 10277 10273 10270 10266 10262 10258 10254 10250 10246 10242 10238 10234 10230 10227 10223 10220 10217 10214 10212 10210 10208 10206 10205 10204 10202 10202 10201 10201 10201 10202 10203 10204 10206 10208 10211 10213 10216 10219 10222 10226 10229 10233 10237 10240 10244 10248 10252 10255 10260 10263
10335 10334 10333 10332 10330 10329 10327 10326 10325 10324 10323 10322 10321 10320 10319 10318 10316 10315 10314 10313 10312 10310 10309 10307 10306 10304 10301 10298 10295 10293 10291 10288 10285 10281 10278 10275 10271 10268 10264 10260 10257 10253 10249 10245 10241 10237 10233 10230 10226 10223 10220 10217 10214 10211 10209 10207 10206 10204 10203 10201 10200 10200 10199 10199 10199 10200 10201 10202 10204 10206 10209 10211 10214 10217 10220 10223 10226 10229 10233 10236 10240 10243 10247 10251 10254
10329 10328 10327 10327 10325 10324 10322 10321 10320 10320 10319 10318 10317 10316 10315 10314 10313 10311 10309 10308 10307 10306 10305 10303 10301 10300 10298 10295 10293 10290 10287 10285 10282 10279 10276 10272 10269 10265 10262 10258 10255 10251 10247 10243 10239 10236 10232 10229 10226 10222 10219 10217 10214 10211 10208 10206 10204 10203 10202 10200 10199 10198 10197 10197 10197 10197 10198 10199 10200 10202 10204 10206 10208 10211 10213 10216 10219 10222 10225 10228 10232 10235 10238 10242 10245
10324 10323 10322 10322 10321 10320 10318 10317 10316 10316 10315 10314 10314 10313 10312 10310 10309 10307 10306 10304 10303 10302 10301 10299 10297 10295 10294 10292 10290 10287 10284 10282 10279 10276 10273 10270 10266 10263 10259 10256 10252 10249 10245 10241 10238 10234 10231 10228 10225 10222 10219 10216 10213 10211 10208 10206 10204 10202 10200 10199 10198 10197 10196 10195 10195 10195 10195 10195 10196 10198 10199 10201 10203 10205 10207 10210 10213 10215 10218 10221 10224 10226 10229 10233 10236
10320 10319 10317 10317 10316 10315 10314 10313 10313 10312 10311 10310 10310 10309 10308 10307 10305 10304 10302 10301 10299 10298 10297 10295 10293 10291 10290 10288 10286 10284 10281 10279 10276 10273 10270 10267 10264 10260 10257 10253 10250 10247 10243 10240 10236 10233 10230 10227 10224 10221 10218 10215 10213 10210 10208 10205 10203 10201 10199 10198 10197 10196 10195 10194 10193 10192 10192 10193 10193 10194 10195 10196 10197 10199 10201 10203 10206 10208 10211 10213 10216 10218 10221 10224 10226
10316 10314 10313 10312 10312 10312 10311 10310 10309 10308 10307 10306 10306 10305 10304 10303 10302 10300 10299 10297 10296 10294 10293 10291 10289 10287 10286 10284 10282 10280 10277 10275 10272 10269 10267 10264 10261 10258 10254 10251 10247 10244 10241 10237 10234 10231 10228 10225 10222 10219 10217 10214 10212 10209 10207 10205 10202 10200 10198 10197 10195 10194 10193 10192 10191 10190 10190 10190 10190 10190 10191 10192 10193 10194 10195 10197 10199 10201 10203 10205 10208 10210 10212 10215 10217
10312 10311 10309 10309 10308 10308 10307 10307 10306 10305 10304 10302 10301 10301 10300 10299 10298 10297 10295 10294 10292 10290 10289 10287 10285 10284 10282 10280 10278 10276 10273 10271 10268 10265 10263 10260 10257 10254 10251 10248 10245 10242 10238 10235 10232 10229 10226 10223 10220 10217 10215 10213 10210 10208 10206 10203 10201 10199 10197 10196 10194 10192 10191 10190 10189 10188 10187 10187 10186 10187 10187 10187 10188 10189 10190 10191 10192 10194 10195 10197 10199 10201 10203 10206 10208
10308 10307 10306 10305 10305 10304 10304 10303 10302 10301 10300 10299 10297 10296 10295 10295 10294 10293 10292 10290 10289 10287 10285 10284 10282 10280 10278 10276 10274 10271 10269 10267 10264 10261 10258 10256 10253 10251 10248 10245 10242 10239 10236 10233 10230 10227 10224 10220 10217 10215 10212 10210 10208 10206 10204 10202 10200 10198 10196 10194 10193 10191 10190 10188 10187 10186 10185 10184 10183 10183 10183 10183 10184 10184 10184 10185 10186 10187 10188 10190 10191 10193 10195 10196 10198